Location: Unspecified
(48.2082°N, 0.0000°E)
Time: 15:48:49
(UTC+00:00)

Tiros 1 despin weight - Pass Details

Date: 29 June 2019
Orbit: 594 x 642 km, 48.2° (Epoch: 16 July)

Event Time Altitude Azimuth Distance (km) Brightness Sun altitude
Rises 19:11:40 0° 196° (SSW) 2,881 ? 6.6°
Reaches altitude 10° 19:14:51 10° 172° (S) 1,969 ? 6.1°
Maximum altitude 19:17:23 15° 138° (SE) 1,663 ? 5.7°
Drops below altitude 10° 19:19:55 10° 104° (ESE) 1,958 ? 5.4°
Sets 19:23:04 0° 81° (E) 2,856 ? 4.9°
